Location: Del Amo
(33.8464°N, 118.2104°W)
Time: 20:55:06
(UTC+00:00)

Courier 1B Rocket - Pass Details

Date: 14 September 2024
Orbit: 920 x 1201 km, 28.3° (Epoch: 13 October)

Event Time Altitude Azimuth Distance (km) Brightness Sun altitude
Rises 03:00:15 0° 266° (W) 3,853 9.7 -13.0°
Reaches altitude 10° 03:02:59 10° 262° (W) 2,939 8.7 -13.5°
Maximum altitude 03:10:02 53° 187° (S) 1,375 5.7 -14.9°
Enters shadow 03:15:07 21° 120° (ESE) 2,358 6.4 -16.0°
